Location: Bryzozowice
(50.3667°N, 18.9667°E)
Time: 11:07:07
(UTC+00:00)

Cosmos 2082 - Pass Details

Date: 24 January 2020
Orbit: 833 x 856 km, 71.0° (Epoch: 18 February)

Event Time Altitude Azimuth Distance (km) Brightness Sun altitude
Rises 17:31:30 0° 207° (SSW) 3,369 7.3 -20.2°
Reaches altitude 10° 17:33:55 10° 208° (SSW) 2,440 6.5 -20.6°
Maximum altitude 17:39:31 89° 288° (WNW) 844 3.6 -21.5°
Enters shadow 17:42:50 26° 29° (NNE) 1,595 4.8 -22.0°
